| time (UTC) | temp F | wind direction | speed knots | gust knots | rain 1hr in | rain 24hr in | rain mn in | humidity % | barometer mb |
| 20260507040042 | 78 | 269 | 0.0 | 1.7 | 0.00 | 0.00 | 0.00 | 78 | 1013.4 |
| 20260507034542 | 78 | 240 | 0.0 | 1.7 | 0.00 | 0.00 | 0.00 | 78 | 1013.5 |
| 20260507033042 | 78 | 226 | 0.0 | 1.7 | 0.00 | 0.00 | 0.00 | 77 | 1013.4 |
| 20260507031539 | 78 | 219 | 0.9 | 3.5 | 0.00 | 0.00 | 0.00 | 77 | 1013.3 |
| 20260507030042 | 78 | 221 | 0.0 | 2.6 | 0.00 | 0.00 | 0.00 | 77 | 1013.2 |
| 20260507024538 | 79 | 221 | 0.9 | 2.6 | 0.00 | 0.00 | 0.00 | 77 | 1013.2 |
| 20260507023037 | 79 | 257 | 0.0 | 3.5 | 0.00 | 0.00 | 0.00 | 76 | 1012.9 |
| 20260507021538 | 79 | 218 | 0.9 | 4.3 | 0.00 | 0.00 | 0.00 | 76 | 1012.9 |
| 20260507020042 | 79 | 217 | 1.7 | 3.5 | 0.00 | 0.00 | 0.00 | 76 | 1012.9 |
| 20260507014533 | 80 | 196 | 1.7 | 3.5 | 0.00 | 0.00 | 0.00 | 75 | 1012.9 |
| 20260507013045 | 80 | 145 | 0.9 | 3.5 | 0.00 | 0.00 | 0.00 | 74 | 1012.9 |
| 20260507011533 | 81 | 210 | 0.9 | 4.3 | 0.00 | 0.00 | 0.00 | 74 | 1012.9 |
| 20260507010036 | 81 | 229 | 0.9 | 3.5 | 0.00 | 0.00 | 0.00 | 73 | 1012.7 |
| 20260507004530 | 81 | 188 | 0.9 | 5.2 | 0.00 | 0.00 | 0.00 | 74 | 1012.8 |
| 20260507003029 | 81 | 127 | 4.3 | 7.0 | 0.00 | 0.00 | 0.00 | 72 | 1012.7 |
| 20260507001531 | 81 | 158 | 3.5 | 6.1 | 0.00 | 0.00 | 0.00 | 71 | 1012.8 |
| 20260507000028 | 81 | 123 | 4.3 | 7.0 | 0.00 | 0.00 | 0.00 | 73 | 1012.7 |
| 20260506234534 | 81 | 96 | 3.5 | 7.8 | 0.00 | 0.00 | 0.00 | 74 | 1012.6 |
| 20260506233042 | 81 | 82 | 4.3 | 8.7 | 0.00 | 0.00 | 0.00 | 73 | 1012.6 |
| 20260506231528 | 81 | 115 | 6.1 | 9.6 | 0.00 | 0.00 | 0.00 | 73 | 1012.7 |
| 20260506230026 | 82 | 84 | 6.1 | 9.6 | 0.00 | 0.00 | 0.00 | 73 | 1012.7 |
| 20260506224523 | 81 | 104 | 7.8 | 12.2 | 0.00 | 0.00 | 0.00 | 72 | 1012.7 |
| 20260506223021 | 82 | 125 | 7.0 | 10.4 | 0.00 | 0.00 | 0.00 | 73 | 1012.7 |
| 20260506221520 | 82 | 79 | 7.0 | 12.2 | 0.00 | 0.00 | 0.00 | 72 | 1012.8 |
| 20260506220027 | 82 | 132 | 7.8 | 11.3 | 0.00 | 0.00 | 0.00 | 72 | 1013.0 |
| 20260506214518 | 82 | 75 | 7.8 | 13.0 | 0.00 | 0.00 | 0.00 | 72 | 1013.1 |
| 20260506213017 | 82 | 78 | 8.7 | 13.9 | 0.00 | 0.00 | 0.00 | 72 | 1013.0 |
| 20260506211522 | 83 | 102 | 7.8 | 12.2 | 0.00 | 0.00 | 0.00 | 70 | 1013.3 |
| 20260506210025 | 83 | 94 | 8.7 | 13.9 | 0.00 | 0.00 | 0.00 | 71 | 1013.3 |
| 20260506204513 | 83 | 104 | 8.7 | 12.2 | 0.00 | 0.00 | 0.00 | 68 | 1013.5 |
| 20260506203011 | 83 | 87 | 7.0 | 11.3 | 0.00 | 0.00 | 0.00 | 69 | 1013.6 |
| 20260506201510 | 83 | 121 | 7.0 | 11.3 | 0.00 | 0.00 | 0.00 | 70 | 1013.8 |
| 20260506200018 | 83 | 84 | 7.8 | 12.2 | 0.00 | 0.00 | 0.00 | 71 | 1013.9 |
| 20260506194507 | 83 | 103 | 7.8 | 12.2 | 0.00 | 0.00 | 0.00 | 70 | 1014.0 |
| 20260506193007 | 83 | 113 | 7.8 | 13.0 | 0.00 | 0.00 | 0.00 | 71 | 1014.0 |
| 20260506191505 | 83 | 97 | 9.6 | 13.0 | 0.00 | 0.00 | 0.00 | 70 | 1014.2 |
| 20260506190003 | 83 | 109 | 7.0 | 12.2 | 0.00 | 0.00 | 0.00 | 72 | 1014.3 |
| 20260506184501 | 83 | 109 | 8.7 | 13.0 | 0.00 | 0.00 | 0.00 | 71 | 1014.4 |
| 20260506183001 | 83 | 86 | 8.7 | 13.0 | 0.00 | 0.00 | 0.00 | 72 | 1014.4 |
| 20260506181559 | 83 | 105 | 7.8 | 12.2 | 0.00 | 0.00 | 0.00 | 72 | 1014.5 |
| 20260506180059 | 83 | 103 | 9.6 | 13.9 | 0.00 | 0.00 | 0.00 | 72 | 1014.3 |
| 20260506174557 | 84 | 92 | 8.7 | 13.0 | 0.00 | 0.00 | 0.00 | 70 | 1014.4 |
| 20260506173108 | 83 | 94 | 7.8 | 13.0 | 0.00 | 0.00 | 0.00 | 71 | 1014.4 |
| 20260506171557 | 83 | 81 | 7.0 | 13.9 | 0.00 | 0.00 | 0.00 | 73 | 1014.6 |
| 20260506170059 | 83 | 93 | 7.8 | 12.2 | 0.00 | 0.00 | 0.00 | 71 | 1014.5 |
| 20260506164609 | 83 | 85 | 7.0 | 12.2 | 0.00 | 0.00 | 0.00 | 71 | 1014.5 |
| 20260506163055 | 83 | 88 | 6.1 | 10.4 | 0.00 | 0.00 | 0.00 | 72 | 1014.5 |
| 20260506161550 | 83 | 109 | 7.0 | 9.6 | 0.00 | 0.00 | 0.00 | 72 | 1014.4 |
| 20260506154524 | 86 | 136 | 2.6 | 3.5 | 0.00 | 0.00 | 0.00 | 61 | 1014.6 |
| 20260506153020 | 85 | 180 | 0.9 | 3.5 | 0.00 | 0.00 | 0.00 | 60 | 1014.4 |
| 20260506151519 | 84 | 166 | 0.0 | 2.6 | 0.00 | 0.00 | 0.00 | 61 | 1014.4 |
| 20260506150017 | 81 | 331 | 1.7 | 4.3 | 0.00 | 0.00 | 0.00 | 63 | 1014.3 |
| 20260506144510 | 80 | 329 | 4.3 | 6.1 | 0.00 | 0.00 | 0.00 | 66 | 1014.2 |
| 20260506143007 | 78 | 334 | 4.3 | 6.1 | 0.00 | 0.00 | 0.00 | 70 | 1014.1 |
| 20260506141503 | 75 | 318 | 4.3 | 7.0 | 0.00 | 0.00 | 0.00 | 72 | 1014.0 |
| 20260506140057 | 73 | 306 | 5.2 | 7.8 | 0.00 | 0.00 | 0.00 | 76 | 1013.9 |
| 20260506134555 | 70 | 324 | 4.3 | 7.0 | 0.00 | 0.00 | 0.00 | 80 | 1013.8 |
| 20260506133103 | 69 | 303 | 5.2 | 7.0 | 0.00 | 0.00 | 0.00 | 83 | 1013.7 |
| 20260506131556 | 68 | 314 | 2.6 | 5.2 | 0.00 | 0.00 | 0.00 | 85 | 1013.6 |
| 20260506130051 | 68 | 326 | 2.6 | 5.2 | 0.00 | 0.00 | 0.00 | 85 | 1013.6 |
| 20260506124550 | 68 | 322 | 1.7 | 3.5 | 0.00 | 0.00 | 0.00 | 85 | 1013.5 |
| 20260506123049 | 68 | 329 | 1.7 | 7.0 | 0.00 | 0.00 | 0.00 | 85 | 1013.3 |
| 20260506121558 | 68 | 281 | 2.6 | 6.1 | 0.00 | 0.00 | 0.00 | 84 | 1013.0 |
| 20260506120109 | 68 | 288 | 3.5 | 4.3 | 0.00 | 0.00 | 0.00 | 84 | 1012.8 |
| 20260506114546 | 67 | 311 | 1.7 | 5.2 | 0.00 | 0.00 | 0.00 | 85 | 1012.6 |
| 20260506113042 | 67 | 298 | 2.6 | 4.3 | 0.00 | 0.00 | 0.00 | 84 | 1012.5 |
| 20260506111540 | 68 | 317 | 0.0 | 2.6 | 0.00 | 0.00 | 0.00 | 82 | 1012.5 |
| 20260506104538 | 69 | 11 | 0.0 | 1.7 | 0.00 | 0.00 | 0.00 | 84 | 1012.4 |
| 20260506103036 | 69 | 300 | 0.0 | 3.5 | 0.00 | 0.00 | 0.00 | 83 | 1012.3 |
| 20260506101535 | 69 | 315 | 3.5 | 4.3 | 0.00 | 0.00 | 0.00 | 83 | 1012.2 |
| 20260506100034 | 69 | 313 | 3.5 | 5.2 | 0.00 | 0.00 | 0.00 | 84 | 1012.2 |
| 20260506094536 | 69 | 304 | 3.5 | 4.3 | 0.00 | 0.00 | 0.00 | 84 | 1012.2 |
| 20260506093044 | 69 | 315 | 3.5 | 4.3 | 0.00 | 0.00 | 0.00 | 84 | 1012.2 |
| 20260506091531 | 69 | 305 | 3.5 | 4.3 | 0.00 | 0.00 | 0.00 | 84 | 1012.4 |
| 20260506090028 | 69 | 292 | 3.5 | 6.1 | 0.00 | 0.00 | 0.00 | 84 | 1012.2 |
| 20260506084527 | 70 | 300 | 3.5 | 5.2 | 0.00 | 0.00 | 0.00 | 84 | 1012.3 |
| 20260506083024 | 70 | 302 | 3.5 | 4.3 | 0.00 | 0.00 | 0.00 | 84 | 1012.4 |
| 20260506081524 | 70 | 288 | 3.5 | 5.2 | 0.00 | 0.00 | 0.00 | 84 | 1012.4 |
| 20260506073018 | 71 | 302 | 2.6 | 3.5 | 0.00 | 0.00 | 0.00 | 84 | 1012.6 |
| 20260506071516 | 71 | 300 | 1.7 | 3.5 | 0.00 | 0.00 | 0.00 | 82 | 1012.7 |
| 20260506061513 | 73 | 319 | 0.0 | 1.7 | 0.00 | 0.00 | 0.00 | 82 | 1013.3 |
| 20260506044512 | 76 | 286 | 0.9 | 3.5 | 0.00 | 0.00 | 0.00 | 79 | 1013.2 |
| 20260506043013 | 76 | 278 | 1.7 | 3.5 | 0.00 | 0.00 | 0.00 | 79 | 1013.0 |
| 20260506041507 | 77 | 211 | 0.0 | 1.7 | 0.00 | 0.00 | 0.00 | 79 | 1012.7 |